Location: Unspecified
(0.0000°N, 0.0000°E)
Time: 04:13:47
(UTC+00:00)

Vanguard 1 - Pass Details

Date: 09 February 2018
Orbit: 650 x 3833 km, 34.2° (Epoch: 23 February)

Event Time Altitude Azimuth Distance (km) Brightness Sun altitude
Exits shadow 05:22:11 - 259° (WSW) 5,155 13.2 -12.6°
Reaches altitude 10° 05:22:53 10° 256° (WSW) 5,069 13.2 -12.4°
Maximum altitude 05:36:14 30° 201° (SSW) 4,717 13.5 -9.2°
Drops below altitude 10° 05:54:51 10° 146° (SSE) 6,932 15.2 -4.7°
Sets 06:01:53 0° 136° (SE) 7,946 15.8 -3.0°
